TimeCST,TemperatureF,Dew PointF,Humidity,Sea Level PressureIn,VisibilityMPH,Wind Direction,Wind SpeedMPH,Gust SpeedMPH,PrecipitationIn,Events,Conditions,WindDirDegrees,DateUTC
12:53 AM,64.9,60.1,84,30.10,10.0,South,4.6,-,N/A,,Clear,170,2012-11-08 06:53:00
1:53 AM,66.0,61.0,84,30.10,10.0,SSE,5.8,-,N/A,,Clear,160,2012-11-08 07:53:00
2:53 AM,64.9,61.0,87,30.09,10.0,South,5.8,-,N/A,,Clear,170,2012-11-08 08:53:00
3:53 AM,64.0,60.1,87,30.09,9.0,South,4.6,-,N/A,,Clear,170,2012-11-08 09:53:00
4:53 AM,64.0,61.0,90,30.08,9.0,SSE,4.6,-,N/A,,Clear,160,2012-11-08 10:53:00
5:53 AM,64.9,61.0,87,30.09,9.0,South,5.8,-,N/A,,Clear,180,2012-11-08 11:53:00
6:53 AM,64.0,61.0,90,30.10,7.0,SSE,4.6,-,N/A,,Clear,160,2012-11-08 12:53:00
7:53 AM,71.1,64.0,78,30.12,8.0,SSE,6.9,-,N/A,,Clear,160,2012-11-08 13:53:00
8:35 AM,77.0,64.4,65,30.13,10.0,SSE,12.7,-,N/A,,Partly Cloudy,160,2012-11-08 14:35:00
8:53 AM,79.0,64.9,62,30.14,10.0,SSE,11.5,-,N/A,,Partly Cloudy,160,2012-11-08 14:53:00
9:53 AM,82.0,63.0,52,30.14,8.0,SSE,17.3,-,N/A,,Partly Cloudy,160,2012-11-08 15:53:00
10:53 AM,82.9,63.0,51,30.13,10.0,SSE,18.4,26.5,N/A,,Partly Cloudy,150,2012-11-08 16:53:00
11:53 AM,84.0,63.0,49,30.10,10.0,SSE,13.8,24.2,N/A,,Partly Cloudy,160,2012-11-08 17:53:00
12:53 PM,84.0,63.0,49,30.07,10.0,SSE,16.1,24.2,N/A,,Partly Cloudy,150,2012-11-08 18:53:00
1:53 PM,84.0,63.0,49,30.04,6.0,SE,20.7,28.8,N/A,,Haze,140,2012-11-08 19:53:00
2:53 PM,82.9,64.0,53,30.04,8.0,SE,21.9,29.9,N/A,,Partly Cloudy,140,2012-11-08 20:53:00
3:53 PM,82.9,63.0,51,30.04,10.0,SSE,16.1,28.8,N/A,,Scattered Clouds,160,2012-11-08 21:53:00
4:53 PM,80.1,62.1,54,30.04,10.0,SSE,20.7,26.5,N/A,,Clear,150,2012-11-08 22:53:00
5:53 PM,77.0,63.0,62,30.05,10.0,SSE,13.8,-,N/A,,Clear,150,2012-11-08 23:53:00
6:53 PM,75.9,63.0,64,30.06,10.0,SSE,11.5,-,N/A,,Clear,150,2012-11-09 00:53:00
7:53 PM,75.0,64.0,69,30.07,10.0,SSE,12.7,-,N/A,,Clear,150,2012-11-09 01:53:00
8:53 PM,75.0,63.0,66,30.08,10.0,SSE,12.7,-,N/A,,Clear,150,2012-11-09 02:53:00
9:53 PM,75.0,63.0,66,30.08,10.0,SSE,12.7,-,N/A,,Clear,150,2012-11-09 03:53:00
10:53 PM,75.0,63.0,66,30.07,10.0,SSE,16.1,21.9,N/A,,Clear,150,2012-11-09 04:53:00
11:53 PM,73.9,63.0,68,30.07,10.0,SSE,12.7,-,N/A,,Clear,160,2012-11-09 05:53:00